User: anonymous   Login
Location: Bouchavesnes-Bergen
(49.9859°N, 2.9203°E)
Time: 17:36:43
(UTC+00:00)
Language:

CZ-2D R/B - Orbit

View from above orbital plane
View from above orbital plane
View from above satellite
View from above satellite

Ground track
Ground track

The orbit data is extracted from the following two-line orbital elements,

1 37932U 11068C   21127.85595747 -.00000005  00000-0  17698-4 0  9994
2 37932  98.6883  64.6288 0036013 245.5398 182.4932 14.22069936491208
Epoch (UTC): 07 May 2021 20:32:34
Eccentricity: 0.0036013
inclination: 98.6883°
perigee height: 792 km
apogee height: 844 km
right ascension of ascending node: 64.6288°
argument of perigee: 245.5398°
revolutions per day: 14.22069936
mean anomaly at epoch: 182.4932°
orbit number at epoch: 49120

The dashed part of the orbit path shows where the satellite is in the earth's shadow,  

DLR